Weather History for Kelso-Longview, WA

Change the Weather History Date:

Sunday, September 29, 2013

  Actual Average Record
Temperature  
Mean Temperature 53 °F -  
Max Temperature 55 °F 66 °F 84 °F (2008)
Min Temperature 51 °F 46 °F 42 °F (1999)
Degree Days  
Heating Degree Days 12    
Growing Degree Days 3 (Base 50)    
Moisture  
Dew Point 50 °F    
Average Humidity 85    
Maximum Humidity 94    
Minimum Humidity 72    
Precipitation  
Precipitation 1.14 in - - ()
Sea Level Pressure  
Sea Level Pressure 29.57 in    
Wind  
Wind Speed 13 mph (SSE)    
Max Wind Speed 26 mph    
Max Gust Speed 41 mph    
Visibility 10 miles    
Events      
Averages and records for this station are not official NWS values.
T = Trace of Precipitation, MM = Missing Value Source: NWS Daily Summary

Daily Weather History Graph

Daily Weather History Graph

Search for Another Location

Airport:

Trip Planner

Search our weather history database for the weather conditions in past years. The results will help you decide how hot, cold, wet, or windy it might be!

Date:

Astronomy

Sep. 29, 2013 Rise Set
Actual Time 7:07 AM PDT 6:54 PM PDT
Civil Twilight 6:38 AM PDT 7:24 PM PDT
Nautical Twilight 6:03 AM PDT 7:59 PM PDT
Astronomical Twilight 5:27 AM PDT 8:34 PM PDT
Moon 1:39 AM PDT (9/29) 4:07 PM PDT (9/29)
Length of Visible Light 12h 46m
Length of Day
11h 46m
Waning Crescent, 26% of the Moon is Illuminated
Sep 29
Waning Crescent
Oct 4
New
Oct 11
First Quarter
Oct 18
Full
Oct 26
Last Quarter

Hourly Weather History & Observations

Time (PDT) Temp. Dew Point Humidity Pressure Visibility Wind Dir Wind Speed Gust Speed Precip Events Conditions
12:15 AM 53.6 °F 48.2 °F 82% 29.62 in 10.0 mi SE 11.5 mph 18.4 mph N/A   Overcast
12:35 AM 53.6 °F 48.2 °F 82% 29.62 in 10.0 mi SSE 11.5 mph - N/A   Overcast
12:55 AM 53.6 °F 48.2 °F 82% 29.62 in 10.0 mi SSE 13.8 mph 18.4 mph N/A   Overcast
1:15 AM 53.6 °F 48.2 °F 82% 29.63 in 10.0 mi SSE 12.7 mph 21.9 mph N/A   Overcast
1:35 AM 53.6 °F 48.2 °F 82% 29.63 in 10.0 mi North - - N/A   Overcast
1:55 AM 53.6 °F 48.2 °F 82% 29.65 in 10.0 mi SSE 11.5 mph 20.7 mph 0.01 in   Overcast
2:15 AM 53.6 °F 48.2 °F 82% 29.64 in 10.0 mi SSE 13.8 mph 18.4 mph 0.05 in   Overcast
2:35 AM 53.6 °F 50.0 °F 88% 29.65 in 10.0 mi SSE 15.0 mph 20.7 mph 0.08 in   Overcast
2:55 AM 53.6 °F 50.0 °F 88% 29.65 in 10.0 mi SSE 12.7 mph 19.6 mph 0.09 in   Overcast
3:15 AM 53.6 °F 50.0 °F 88% 29.64 in 10.0 mi SSE 13.8 mph 18.4 mph 0.01 in   Mostly Cloudy
3:35 AM 53.6 °F 50.0 °F 88% 29.65 in 10.0 mi SSE 13.8 mph 20.7 mph 0.01 in   Overcast
3:55 AM 53.6 °F 50.0 °F 88% 29.65 in 9.0 mi SSE 9.2 mph 20.7 mph 0.04 in   Overcast
4:15 AM 53.6 °F 50.0 °F 88% 29.65 in 10.0 mi SSE 13.8 mph 17.3 mph N/A   Overcast
4:35 AM 53.6 °F 50.0 °F 88% 29.65 in 10.0 mi North - - N/A   Overcast
4:55 AM 53.6 °F 48.2 °F 82% 29.65 in 10.0 mi North - - N/A   Overcast
5:15 AM 53.6 °F 48.2 °F 82% 29.65 in 10.0 mi North - - N/A   Overcast
5:35 AM 53.6 °F 48.2 °F 82% 29.65 in 10.0 mi North - - N/A   Overcast
5:55 AM 53.6 °F 48.2 °F 82% 29.64 in 10.0 mi North - - 0.01 in   Overcast
6:15 AM 53.6 °F 48.2 °F 82% 29.65 in 10.0 mi North - - N/A   Overcast
6:35 AM 53.6 °F 48.2 °F 82% 29.65 in 10.0 mi North - - N/A   Overcast
6:55 AM 53.6 °F 48.2 °F 82% 29.65 in 10.0 mi North - - 0.04 in   Overcast
7:15 AM 53.6 °F 50.0 °F 88% 29.64 in 10.0 mi North - - 0.06 in   Overcast
7:35 AM 53.6 °F 50.0 °F 88% 29.65 in 10.0 mi North - - 0.08 in   Overcast
7:55 AM 53.6 °F 50.0 °F 88% 29.63 in 10.0 mi North - - 0.10 in   Overcast
8:15 AM 53.6 °F 51.8 °F 94% 29.65 in 10.0 mi North - - N/A   Overcast
8:35 AM 53.6 °F 50.0 °F 88% 29.65 in 10.0 mi North - - N/A   Overcast
8:55 AM 53.6 °F 51.8 °F 94% 29.65 in 9.0 mi North - - 0.01 in   Overcast
9:15 AM 53.6 °F 50.0 °F 88% 29.65 in 10.0 mi North - - 0.01 in   Overcast
9:35 AM 55.4 °F 50.0 °F 82% 29.66 in 10.0 mi North - - 0.01 in   Overcast
9:55 AM 53.6 °F 50.0 °F 88% 29.67 in 10.0 mi North - - 0.02 in   Overcast
10:15 AM 53.6 °F 48.2 °F 82% 29.68 in 10.0 mi North - - 0.04 in   Overcast
10:35 AM 53.6 °F 50.0 °F 88% 29.67 in 10.0 mi North - - 0.05 in   Overcast
10:55 AM 53.6 °F 51.8 °F 94% 29.67 in 10.0 mi North - - 0.05 in   Overcast
11:15 AM 53.6 °F 51.8 °F 94% 29.67 in 10.0 mi North - - 0.03 in   Overcast
11:35 AM 53.6 °F 50.0 °F 88% 29.67 in 10.0 mi North - - 0.05 in   Overcast
11:55 AM 53.6 °F 51.8 °F 94% 29.66 in 10.0 mi North - - 0.06 in   Overcast
12:15 PM 53.6 °F 50.0 °F 88% 29.66 in 10.0 mi North - - 0.01 in   Overcast
12:35 PM 53.6 °F 50.0 °F 88% 29.65 in 10.0 mi North - - 0.04 in   Overcast
12:55 PM 53.6 °F 50.0 °F 88% 29.64 in 10.0 mi SSE 11.5 mph 17.3 mph 0.06 in   Overcast
1:15 PM 53.6 °F 50.0 °F 88% 29.63 in 10.0 mi SSE 12.7 mph 18.4 mph 0.02 in   Overcast
1:35 PM 53.6 °F 50.0 °F 88% 29.62 in 10.0 mi SSE 10.4 mph 20.7 mph 0.04 in   Overcast
1:55 PM 53.6 °F 50.0 °F 88% 29.61 in 10.0 mi SSE 15.0 mph 21.9 mph 0.05 in   Mostly Cloudy
2:15 PM 53.6 °F 50.0 °F 88% 29.59 in 10.0 mi SSE 13.8 mph 23.0 mph 0.04 in   Overcast
2:35 PM 53.6 °F 48.2 °F 82% 29.57 in 10.0 mi SSE 15.0 mph 24.2 mph 0.08 in   Overcast
2:55 PM 53.6 °F 50.0 °F 88% 29.56 in 10.0 mi SSE 13.8 mph 24.2 mph 0.11 in   Overcast
3:15 PM 55.4 °F 50.0 °F 82% 29.56 in 10.0 mi SSE 16.1 mph 24.2 mph 0.03 in   Overcast
3:35 PM 55.4 °F 50.0 °F 82% 29.54 in 10.0 mi SSE 17.3 mph 24.2 mph 0.06 in   Overcast
3:55 PM 55.4 °F 50.0 °F 82% 29.53 in 10.0 mi SSE 16.1 mph 25.3 mph 0.09 in   Overcast
4:15 PM 55.4 °F 50.0 °F 82% 29.51 in 10.0 mi SSE 17.3 mph 26.5 mph 0.01 in   Overcast
4:35 PM 55.4 °F 50.0 °F 82% 29.49 in 10.0 mi North - - 0.01 in   Overcast
4:55 PM 55.4 °F 50.0 °F 82% 29.48 in 10.0 mi North - - 0.02 in   Overcast
5:15 PM 55.4 °F 51.8 °F 88% 29.46 in 7.0 mi North - - 0.02 in   Overcast
5:35 PM 55.4 °F 51.8 °F 88% 29.44 in 10.0 mi North - - 0.04 in   Overcast
5:55 PM 55.4 °F 51.8 °F 88% 29.42 in 10.0 mi North - - 0.05 in   Overcast
6:15 PM 55.4 °F 50.0 °F 82% 29.40 in 9.0 mi North - - 0.01 in   Overcast
6:35 PM 55.4 °F 50.0 °F 82% 29.38 in 10.0 mi North - - 0.01 in   Overcast
6:55 PM 55.4 °F 50.0 °F 82% 29.36 in 10.0 mi North - - 0.02 in   Overcast
7:15 PM 55.4 °F 51.8 °F 88% 29.35 in 7.0 mi SSE 25.3 mph 41.4 mph 0.04 in   Overcast
7:35 PM 55.4 °F 51.8 °F 88% 29.33 in 9.0 mi SSE 21.9 mph 34.5 mph 0.05 in   Overcast
7:55 PM 55.4 °F 51.8 °F 88% 29.32 in 10.0 mi SSE 26.5 mph 36.8 mph 0.08 in   Overcast
8:15 PM 55.4 °F 51.8 °F 88% 29.35 in 5.0 mi SSE 16.1 mph 29.9 mph 0.08 in   Mostly Cloudy
8:35 PM 55.4 °F 51.8 °F 88% 29.44 in 7.0 mi North - - 0.16 in   Overcast
8:55 PM 55.4 °F 51.8 °F 88% 29.43 in 10.0 mi North - - 0.21 in   Mostly Cloudy
9:15 PM 55.4 °F 51.8 °F 88% 29.46 in 9.0 mi North - - 0.02 in   Overcast
9:35 PM 55.4 °F 51.8 °F 88% 29.47 in 10.0 mi North - - 0.02 in   Overcast
9:55 PM 55.4 °F 48.2 °F 77% 29.48 in 10.0 mi North - - 0.02 in   Mostly Cloudy
10:15 PM 53.6 °F 48.2 °F 82% 29.50 in 10.0 mi North - - N/A   Mostly Cloudy
10:35 PM 55.4 °F 46.4 °F 72% 29.52 in 10.0 mi Calm Calm - N/A   Overcast
10:55 PM 51.8 °F 46.4 °F 82% 29.54 in 10.0 mi Calm Calm - N/A   Scattered Clouds
11:15 PM 51.8 °F 46.4 °F 82% 29.56 in 10.0 mi South 3.5 mph - N/A   Clear
11:35 PM 53.6 °F 44.6 °F 72% 29.57 in 10.0 mi SSE 5.8 mph - N/A   Partly Cloudy
11:55 PM 51.8 °F 46.4 °F 82% 29.58 in 10.0 mi SE 10.4 mph - N/A   Partly Cloudy